{"data":{"norad_id":58744,"intl_designator":"2024-005S","name":"STARLINK-31167","alt_names":[],"object_type":"PAYLOAD","status":"ACTIVE","operator":null,"country":"US","launch_date":"2024-01-07","launch_site_code":"AFETR","launch_vehicle":null,"mission":null,"orbit_class":"UNKNOWN","rcs_meters":null,"size_class":null,"mass_kg":null,"dimensions":null,"purposes":["comms"],"wikipedia_slug":null,"has_3d_model":false,"image_url":null,"decayed_at":null,"tle_current":{"epoch":"2026-09-20T09:51:40.615200Z","epoch_age_seconds":160183,"freshness":"FRESH","line1":"1 58744U 24005S   26263.41088675 -.00000365  00000+0 -37464-5 0  9991","line2":"2 58744  43.0054  54.6254 0001112 264.4741  95.5984 15.27574234151989","mean_motion":15.27574234,"eccentricity":0.0001112,"inclination_deg":43.0054,"raan_deg":54.6254,"arg_perigee_deg":264.4741,"mean_anomaly_deg":95.5984,"bstar":-3.7464e-6,"rev_number":15198,"period_min":94.26710453405,"perigee_km":482.30339575846,"apogee_km":483.82932738608,"semimajor_km":6861.2033615723,"source":"CELESTRAK","updated_at":"2026-09-21T09:00:33.954597Z"}}}